Weather History for Sioux Falls, SD

Change the Weather History Date:

Tuesday, January 8, 2013

  Actual Average Record
Temperature  
Mean Temperature 20 °F 16 °F  
Max Temperature 33 °F 26 °F 57 °F (2003)
Min Temperature 7 °F 7 °F -24 °F (1894)
Degree Days  
Heating Degree Days 45 49  
Month to date heating degree days 392  
Since 1 July heating degree days 3525  
Cooling Degree Days 0 0  
Month to date cooling degree days 0  
Year to date cooling degree days 0  
Moisture  
Dew Point 18 °F    
Average Humidity 87    
Maximum Humidity 96    
Minimum Humidity 75    
Precipitation  
Precipitation 0.00 in 0.01 in 0.36 in (1938)
Month to date precipitation 0.15  
Year to date precipitation 0.15  
Snow  
Snow 0.00 in 0.30 in 4.00 in (1938)
Month to date snowfall 2.0  
Since 1 July snowfall 18.9  
Snow Depth 3.00 in    
Sea Level Pressure  
Sea Level Pressure 29.92 in    
Wind  
Wind Speed 5 mph (NW)    
Max Wind Speed 14 mph    
Max Gust Speed -    
Visibility 8 miles    
Events Fog , Snow    
T = Trace of Precipitation, MM = Missing Value Source: NWS Daily Summary

Daily Weather History Graph

Daily Weather History Graph

Search for Another Location

Airport:

Trip Planner

Search our weather history database for the weather conditions in past years. The results will help you decide how hot, cold, wet, or windy it might be!

Date:

Astronomy

Jan. 08, 2013 Rise Set
Actual Time 7:59 AM CST 5:08 PM CST
Civil Twilight 7:27 AM CST 5:40 PM CST
Nautical Twilight 6:51 AM CST 6:16 PM CST
Astronomical Twilight 6:17 AM CST 6:51 PM CST
Moon 4:33 AM CST (1/8) 2:11 PM CST (1/8)
Length of Visible Light 10h 13m
Length of Day
9h 08m
Waning Crescent, 13% of the Moon is Illuminated
Jan 8
Waning Crescent
Jan 11
New
Jan 18
First Quarter
Jan 26
Full
Feb 3
Last Quarter

Hourly Weather History & Observations

Time (CST) Temp. Windchill Dew Point Humidity Pressure Visibility Wind Dir Wind Speed Gust Speed Precip Events Conditions
12:56 AM 12.0 °F - 10.9 °F 95% 29.98 in 9.0 mi Calm Calm - N/A   Partly Cloudy
1:56 AM 9.0 °F 2.4 °F 8.1 °F 96% 29.97 in 7.0 mi NE 3.5 mph - N/A Fog Patches of Fog
2:09 AM 10.4 °F 0.8 °F 6.8 °F 85% 29.90 in 0.5 mi NNE 5.8 mph - N/A Fog Light Freezing Fog
2:27 AM 10.4 °F 2.2 °F 8.6 °F 92% 29.90 in 3.0 mi NNE 4.6 mph - N/A   Scattered Clouds
2:56 AM 10.9 °F 4.7 °F 9.0 °F 92% 29.96 in 10.0 mi NNE 3.5 mph - N/A   Clear
3:56 AM 10.0 °F 3.6 °F 8.1 °F 92% 29.95 in 6.0 mi NNE 3.5 mph - 0.00 in Snow Light Snow
4:15 AM 8.6 °F 0.1 °F 6.8 °F 92% 29.87 in 6.0 mi NNE 4.6 mph - 0.00 in Snow Light Snow
4:56 AM 9.0 °F 0.6 °F 7.0 °F 92% 29.94 in 6.0 mi ENE 4.6 mph - 0.00 in   Partly Cloudy
5:56 AM 9.0 °F 0.6 °F 7.0 °F 92% 29.94 in 6.0 mi NNE 4.6 mph - 0.00 in   Clear
6:56 AM 9.0 °F 0.6 °F 7.0 °F 92% 29.92 in 6.0 mi ENE 4.6 mph - N/A   Clear
7:19 AM 8.6 °F 0.1 °F 6.8 °F 92% 29.82 in 5.0 mi East 4.6 mph - 0.00 in Snow Light Snow
7:56 AM 10.9 °F 2.9 °F 8.1 °F 88% 29.91 in 4.0 mi East 4.6 mph - 0.00 in   Partly Cloudy
8:56 AM 17.1 °F - 14.0 °F 88% 29.88 in 3.0 mi Calm Calm - N/A   Clear
9:56 AM 21.0 °F 12.4 °F 19.0 °F 92% 29.87 in 5.0 mi SE 6.9 mph - N/A   Clear
10:56 AM 24.1 °F 15.2 °F 21.9 °F 91% 29.86 in 7.0 mi South 8.1 mph - N/A   Partly Cloudy
11:56 AM 25.0 °F 17.1 °F 23.0 °F 92% 29.81 in 7.0 mi South 6.9 mph - N/A   Overcast
12:56 PM 27.0 °F 18.0 °F 24.1 °F 89% 29.80 in 7.0 mi SSW 9.2 mph - N/A   Mostly Cloudy
1:56 PM 28.9 °F 21.9 °F 24.1 °F 82% 29.81 in 9.0 mi SW 6.9 mph - N/A   Clear
2:56 PM 28.9 °F 21.1 °F 24.1 °F 82% 29.83 in 9.0 mi WSW 8.1 mph - N/A   Clear
3:56 PM 30.9 °F - 25.0 °F 79% 29.84 in 10.0 mi Calm Calm - N/A   Clear
4:56 PM 30.9 °F 25.2 °F 25.0 °F 79% 29.90 in 10.0 mi WSW 5.8 mph - N/A   Clear
5:56 PM 30.9 °F 22.2 °F 26.1 °F 82% 29.93 in 10.0 mi West 10.4 mph - N/A   Clear
6:56 PM 32.0 °F 23.6 °F 26.1 °F 79% 29.96 in 10.0 mi West 10.4 mph - N/A   Clear
7:56 PM 30.9 °F 25.2 °F 26.1 °F 82% 29.99 in 10.0 mi WSW 5.8 mph - N/A   Clear
8:56 PM 30.0 °F 22.4 °F 26.1 °F 85% 30.00 in 10.0 mi West 8.1 mph - N/A   Clear
9:56 PM 28.9 °F 22.8 °F 25.0 °F 85% 30.03 in 10.0 mi WSW 5.8 mph - N/A   Clear
10:56 PM 32.0 °F 22.1 °F 28.0 °F 85% 30.05 in 10.0 mi West 13.8 mph - N/A   Scattered Clouds
11:56 PM 32.0 °F 24.2 °F 28.0 °F 85% 30.09 in 10.0 mi West 9.2 mph - N/A   Clear